View from above orbital plane
|
View from above satellite
|
Ground track
|
The orbit data is extracted from the following two-line orbital elements,
1 00029U 60002B 21057.74110151 -.00000057 00000-0 22479-4 0 9995
2 00029 48.3789 188.5134 0024476 240.7095 119.1371 14.74407037256061
Epoch (UTC): | 26 February 2021 17:47:11 |
Eccentricity: | 0.0024476 |
inclination: | 48.3789° |
perigee height: | 630 km |
apogee height: | 664 km |
right ascension of ascending node: | 188.5134° |
argument of perigee: | 240.7095° |
revolutions per day: | 14.74407037 |
mean anomaly at epoch: | 119.1371° |
orbit number at epoch: | 25606 |
The dashed part of the orbit path shows where the satellite is in the earth's shadow,
|
|